Date String (YYYY-MM-DD hh:mm:ss) UTC,Instrument flags,Ambient pressure (hPa),Sample flow (lpm),Bypass flow (lpm),Sample temperature (°C),Ambient temperature (°C),ASC tube jacket temperature (°C),LED temperature (°C),Box temperature (°C),Sample RH (%),Span deviation,Mass concentration (μg/m³),Mass concentration (μg/m³),Mass concentration (μg/m³)
DateTimeUTC,F1_M11,P_M11,Q1_M11,Q2_M11,T1_M11,T2_M11,T3_M11,T4_M11,T5_M11,U1_M11,ZSPAN_M11,X0_M11,X2_M11,X1_M11
2023-03-13 14:00:00,,0826.3,5.00,0.00,22.6,22.8,00.0,31.2,24.6,11.9,-000.1,0009.22,0005.88,0005.65
2023-03-13 14:01:00,,0826.3,5.00,0.00,22.7,23.2,00.0,31.3,24.7,11.8,-000.5,0009.34,0005.88,0005.66
2023-03-13 14:02:00,,0826.3,5.04,0.00,22.7,22.7,00.0,31.3,24.6,11.8,-000.7,0009.40,0005.93,0005.68
2023-03-13 14:03:00,,0826.2,5.01,0.00,22.7,22.3,00.0,31.3,24.6,11.9,-000.5,0008.98,0005.96,0005.71
2023-03-13 14:04:00,,0826.2,4.99,0.00,22.7,22.0,00.0,31.3,24.5,11.9,-000.0,0008.81,0005.97,0005.71
2023-03-13 14:05:00,,0826.2,5.00,0.00,22.7,21.8,00.0,31.3,24.5,11.9,-000.4,0008.95,0005.96,0005.70
2023-03-13 14:06:00,,0826.2,4.99,0.00,22.7,21.6,00.0,31.3,24.5,12.0,-000.2,0008.91,0005.94,0005.69
2023-03-13 14:07:00,,0826.2,4.99,0.00,22.7,21.4,00.0,31.3,24.4,12.0,-000.7,0008.83,0005.93,0005.69
2023-03-13 14:08:00,,0826.2,5.02,0.00,22.6,21.3,00.0,31.3,24.4,12.0,-000.9,0008.63,0005.89,0005.68
2023-03-13 14:09:00,,0826.2,4.98,0.00,22.6,21.2,00.0,31.3,24.4,11.9,-001.1,0008.65,0005.89,0005.67
2023-03-13 14:10:00,,0826.1,5.01,0.00,22.6,21.2,00.0,31.3,24.4,11.9,-000.7,0008.69,0005.88,0005.66
2023-03-13 14:11:00,,0826.1,4.97,0.00,22.6,21.1,00.0,31.3,24.3,11.9,-000.4,0008.56,0005.88,0005.65
2023-03-13 14:12:00,,0826.2,5.03,0.00,22.6,21.1,00.0,31.3,24.3,12.0,-000.7,0008.25,0005.86,0005.64
2023-03-13 14:13:00,,0826.2,4.99,0.00,22.6,21.1,00.0,31.3,24.3,12.1,-001.0,0008.28,0005.84,0005.62
2023-03-13 14:14:00,,0826.2,5.03,0.00,22.6,21.0,00.0,31.3,24.3,12.1,-001.2,0008.34,0005.82,0005.59
2023-03-13 14:15:00,,0826.2,4.97,0.00,22.6,21.0,00.0,31.3,24.3,12.1,-001.2,0008.43,0005.81,0005.59
2023-03-13 14:16:00,,0826.1,5.00,0.00,22.5,21.0,00.0,31.3,24.3,12.1,-001.1,0008.46,0005.80,0005.58
2023-03-13 14:17:00,,0826.2,5.00,0.00,22.5,20.9,00.0,31.3,24.2,12.1,-001.5,0008.55,0005.81,0005.59
2023-03-13 14:18:00,,0826.2,5.02,0.00,22.5,21.4,00.0,31.3,24.3,12.0,-001.4,0008.58,0005.81,0005.58
2023-03-13 14:19:00,,0826.1,5.02,0.00,22.6,22.8,00.0,31.3,24.6,12.0,-001.3,0008.62,0005.83,0005.58
2023-03-13 14:20:00,,0826.2,5.01,0.00,22.8,23.4,00.0,31.3,24.8,11.9,-001.0,0008.65,0005.84,0005.58
2023-03-13 14:21:00,,0826.2,4.99,0.00,22.8,22.9,00.0,31.4,24.8,11.9,-000.8,0008.66,0005.84,0005.58
2023-03-13 14:22:00,,0826.2,5.00,0.00,22.8,22.5,00.0,31.4,24.7,11.9,-001.5,0008.70,0005.84,0005.57
2023-03-13 14:23:00,,0826.1,4.99,0.00,22.8,22.2,00.0,31.4,24.6,12.0,-001.2,0008.69,0005.84,0005.57
2023-03-13 14:24:00,,0826.1,4.98,0.00,22.8,21.9,00.0,31.4,24.6,12.0,-000.8,0008.74,0005.90,0005.58
2023-03-13 14:25:00,,0826.2,5.00,0.00,22.8,21.8,00.0,31.4,24.6,12.1,-000.8,0008.70,0005.91,0005.59
2023-03-13 14:26:00,,0826.1,5.00,0.00,22.8,21.6,00.0,31.4,24.5,12.0,-001.2,0008.93,0005.90,0005.58
2023-03-13 14:27:00,,0826.1,5.00,0.00,22.8,21.5,00.0,31.4,24.5,11.9,-001.2,0008.94,0005.91,0005.57
2023-03-13 14:28:00,,0826.1,5.01,0.00,22.7,21.4,00.0,31.4,24.5,12.0,-000.4,0008.85,0005.91,0005.56
2023-03-13 14:29:00,,0826.2,5.00,0.00,22.7,21.3,00.0,31.4,24.5,12.1,-000.1,0008.90,0005.94,0005.58
2023-03-13 14:30:00,,0826.2,5.00,0.00,22.7,21.3,00.0,31.4,24.4,12.2,-000.5,0008.94,0005.95,0005.58
2023-03-13 14:31:00,,0826.2,5.00,0.00,22.7,21.2,00.0,31.4,24.4,12.2,-000.4,0008.93,0005.94,0005.58
2023-03-13 14:32:00,,0826.2,4.99,0.00,22.7,21.1,00.0,31.4,24.4,12.1,-000.7,0008.87,0005.93,0005.58
2023-03-13 14:33:00,,0826.2,4.99,0.00,22.7,21.1,00.0,31.4,24.4,12.3,0000.4,0008.86,0005.93,0005.59
2023-03-13 14:34:00,,0826.2,5.00,0.00,22.7,21.1,00.0,31.4,24.4,12.2,0000.7,0009.02,0005.97,0005.59
2023-03-13 14:35:00,,0826.2,5.01,0.00,22.6,21.1,00.0,31.4,24.4,12.3,0000.4,0009.38,0005.93,0005.58
2023-03-13 14:36:00,,0826.3,5.01,0.00,22.6,21.0,00.0,31.4,24.3,12.2,0000.1,0009.31,0005.92,0005.58
2023-03-13 14:37:00,,0826.2,4.99,0.00,22.6,20.9,00.0,31.4,24.3,12.2,0000.7,0008.96,0005.93,0005.59
2023-03-13 14:38:00,,0826.3,5.00,0.00,22.6,20.8,00.0,31.4,24.2,12.2,0000.3,0008.89,0005.95,0005.61
2023-03-13 14:39:00,,0826.2,5.00,0.00,22.6,20.8,00.0,31.3,24.2,12.3,0000.1,0008.96,0005.97,0005.61
2023-03-13 14:40:00,,0826.2,5.01,0.00,22.5,20.7,00.0,31.3,24.2,12.3,-000.4,0009.00,0005.98,0005.61
2023-03-13 14:41:00,,0826.3,4.99,0.00,22.5,20.7,00.0,31.3,24.2,12.5,-000.3,0009.03,0006.01,0005.62
2023-03-13 14:42:00,,0826.3,5.00,0.00,22.5,20.7,00.0,31.3,24.2,12.4,-000.1,0009.09,0006.06,0005.64
2023-03-13 14:43:00,,0826.3,5.01,0.00,22.5,21.1,00.0,31.3,24.2,12.5,0000.4,0009.08,0006.07,0005.65
2023-03-13 14:44:00,,0826.3,5.02,0.00,22.6,22.6,00.0,31.3,24.5,12.5,-001.0,0009.10,0006.09,0005.66
2023-03-13 14:45:00,,0826.3,4.99,0.00,22.7,23.3,00.0,31.3,24.7,12.3,-001.4,0009.02,0006.11,0005.69
2023-03-13 14:46:00,,0826.2,5.00,0.00,22.8,23.0,00.0,31.3,24.7,12.4,-001.3,0008.70,0006.18,0005.75
2023-03-13 14:47:00,,0826.4,5.01,0.00,22.8,22.5,00.0,31.4,24.7,12.3,-001.4,0008.82,0006.22,0005.78
2023-03-13 14:48:00,,0826.3,5.00,0.00,22.8,22.2,00.0,31.4,24.6,12.4,-001.4,0008.81,0006.20,0005.77
2023-03-13 14:49:00,,0826.2,4.99,0.00,22.7,21.8,00.0,31.4,24.4,12.4,-001.1,0008.81,0006.19,0005.76
2023-03-13 14:50:00,,0826.1,5.00,0.00,22.7,21.5,00.0,31.4,24.4,12.4,-001.0,0008.71,0006.16,0005.77
2023-03-13 14:51:00,,0826.5,4.99,0.00,22.7,21.4,00.0,31.4,24.4,12.3,-000.6,0008.63,0006.13,0005.75
2023-03-13 14:52:00,,0826.2,5.01,0.00,22.7,21.2,00.0,31.4,24.3,12.2,-000.4,0008.58,0006.09,0005.74
2023-03-13 14:53:00,,0826.2,5.00,0.00,22.6,21.1,00.0,31.4,24.3,12.3,-000.5,0009.30,0006.09,0005.74
2023-03-13 14:54:00,,0826.2,5.00,0.00,22.6,21.0,00.0,31.4,24.3,12.4,-000.6,0009.60,0006.12,0005.74
2023-03-13 14:55:00,,0826.2,5.00,0.00,22.6,21.0,00.0,31.4,24.3,12.4,-000.2,0009.89,0006.10,0005.73
2023-03-13 14:56:00,,0826.2,5.01,0.00,22.6,21.0,00.0,31.4,24.3,12.5,-000.1,0009.85,0006.06,0005.71
2023-03-13 14:57:00,,0826.2,5.00,0.00,22.6,20.9,00.0,31.3,24.3,12.6,-000.3,0009.73,0005.98,0005.66
2023-03-13 14:58:00,,0826.2,4.98,0.00,22.5,20.9,00.0,31.3,24.2,12.6,0000.0,0009.95,0005.98,0005.63
2023-03-13 14:59:00,,0826.2,5.00,0.00,22.5,20.9,00.0,31.3,24.2,12.5,-000.0,0010.41,0005.99,0005.63
